TimeEDT,TemperatureF,Dew PointF,Humidity,Sea Level PressureIn,VisibilityMPH,Wind Direction,Wind SpeedMPH,Gust SpeedMPH,PrecipitationIn,Events,Conditions,WindDirDegrees,DateUTC
12:53 AM,60.1,57.0,90,30.11,10.0,NE,6.9,-,N/A,,Clear,40,2013-09-29 04:53:00
1:53 AM,60.1,57.0,90,30.12,10.0,North,4.6,-,N/A,,Scattered Clouds,10,2013-09-29 05:53:00
2:53 AM,60.1,57.0,90,30.10,10.0,North,5.8,-,N/A,,Partly Cloudy,10,2013-09-29 06:53:00
3:53 AM,59.0,57.0,93,30.09,10.0,North,5.8,-,N/A,,Clear,360,2013-09-29 07:53:00
4:53 AM,57.9,55.9,93,30.09,10.0,North,4.6,-,N/A,,Partly Cloudy,360,2013-09-29 08:53:00
5:53 AM,57.9,55.9,93,30.08,10.0,North,4.6,-,N/A,,Clear,360,2013-09-29 09:53:00
6:53 AM,57.9,55.9,93,30.10,10.0,North,4.6,-,N/A,,Mostly Cloudy,350,2013-09-29 10:53:00
7:53 AM,57.9,55.9,93,30.11,10.0,North,6.9,-,N/A,,Clear,360,2013-09-29 11:53:00
8:53 AM,62.1,57.9,86,30.12,10.0,North,6.9,-,N/A,,Partly Cloudy,10,2013-09-29 12:53:00
9:53 AM,66.9,59.0,76,30.10,10.0,North,10.4,-,N/A,,Partly Cloudy,350,2013-09-29 13:53:00
10:53 AM,71.1,57.0,61,30.10,10.0,North,10.4,-,N/A,,Clear,360,2013-09-29 14:53:00
11:53 AM,73.9,57.9,57,30.08,10.0,NNE,13.8,-,N/A,,Partly Cloudy,20,2013-09-29 15:53:00
12:53 PM,73.0,57.0,57,30.07,10.0,NNE,9.2,-,N/A,,Mostly Cloudy,20,2013-09-29 16:53:00
1:53 PM,77.0,57.9,52,30.05,10.0,North,9.2,-,N/A,,Mostly Cloudy,10,2013-09-29 17:53:00
2:53 PM,75.9,57.0,52,30.02,10.0,North,10.4,-,N/A,,Mostly Cloudy,360,2013-09-29 18:53:00
3:53 PM,77.0,55.9,48,30.00,10.0,North,6.9,-,N/A,,Partly Cloudy,360,2013-09-29 19:53:00
4:53 PM,77.0,55.9,48,30.00,10.0,NNW,6.9,-,N/A,,Scattered Clouds,340,2013-09-29 20:53:00
5:53 PM,75.9,57.0,52,30.00,10.0,North,5.8,-,N/A,,Scattered Clouds,350,2013-09-29 21:53:00
6:53 PM,72.0,57.9,61,30.01,10.0,Calm,Calm,-,N/A,,Clear,0,2013-09-29 22:53:00
7:53 PM,68.0,61.0,78,30.02,10.0,Calm,Calm,-,N/A,,Mostly Cloudy,0,2013-09-29 23:53:00
8:53 PM,64.0,59.0,84,30.03,10.0,Calm,Calm,-,N/A,,Partly Cloudy,0,2013-09-30 00:53:00
9:53 PM,66.0,59.0,78,30.03,10.0,Calm,Calm,-,N/A,,Mostly Cloudy,0,2013-09-30 01:53:00
10:53 PM,63.0,59.0,87,30.02,10.0,Calm,Calm,-,N/A,,Clear,0,2013-09-30 02:53:00
11:53 PM,61.0,57.9,90,30.02,10.0,Calm,Calm,-,N/A,,Clear,0,2013-09-30 03:53:00